KZ7I Weather Reports


time (UTC)temp
F
wind
direction
speed
knots
gust
knots
rain 1hr
in
rain 24hr
in
rain mn
in
humidity
%
barometer
mb
20260906114300 72 162 0.0 0.0 0.00 0.00 0.00 98 1012.9
20260906113755 72 162 0.0 0.0 0.00 0.00 0.00 98 1012.6
20260906113254 72 162 0.0 0.0 0.00 0.00 0.00 98 1012.9
20260906112755 72 162 0.0 0.0 0.00 0.00 0.00 98 1012.8
20260906112251 71 163 0.0 0.0 0.00 0.00 0.00 98 1012.5
20260906111751 71 163 0.0 0.0 0.00 0.00 0.00 98 1012.6
20260906111250 71 163 0.0 0.0 0.00 0.00 0.00 98 1012.7
20260906110745 71 163 0.0 0.0 0.00 0.00 0.00 98 1012.5
20260906110241 71 163 0.0 0.0 0.00 0.00 0.00 98 1012.5
20260906105740 71 163 0.0 0.0 0.00 0.00 0.00 98 1012.5
20260906105236 71 163 0.0 0.0 0.00 0.00 0.00 98 1012.4
20260906104731 71 163 0.0 0.0 0.00 0.00 0.00 98 1012.4
20260906104230 71 163 0.0 0.0 0.00 0.00 0.00 98 1012.3
20260906103727 71 163 0.0 0.0 0.00 0.00 0.00 98 1012.3
20260906103222 71 163 0.0 0.0 0.00 0.00 0.00 98 1012.4
20260906102718 71 163 0.0 0.0 0.00 0.00 0.00 98 1012.2
20260906102217 71 163 0.0 0.0 0.00 0.00 0.00 98 1012.2
20260906101712 71 163 0.0 0.0 0.00 0.00 0.00 98 1012.2
20260906101207 71 163 0.0 0.0 0.00 0.00 0.00 98 1012.0
20260906100703 71 163 0.0 0.0 0.00 0.00 0.00 98 1011.9
20260906100203 71 163 0.0 0.0 0.00 0.00 0.00 98 1011.8
20260906095657 71 163 0.0 0.0 0.00 0.00 0.00 98 1011.7
20260906095153 71 163 0.0 0.0 0.00 0.00 0.00 98 1011.7
20260906094651 71 163 0.0 0.0 0.00 0.00 0.00 98 1011.7
20260906094147 71 163 0.0 0.0 0.00 0.00 0.00 98 1011.4
20260906093644 71 163 0.0 0.0 0.00 0.00 0.00 98 1011.6
20260906093144 71 163 0.0 0.0 0.00 0.00 0.00 98 1011.6
20260906092639 71 163 0.0 0.0 0.00 0.00 0.00 97 1011.6
20260906092139 72 163 0.0 0.0 0.00 0.00 0.00 97 1011.5
20260906091635 72 163 0.0 0.0 0.00 0.00 0.00 97 1011.8
20260906091132 72 163 0.0 0.0 0.00 0.00 0.00 97 1011.5
20260906090627 72 163 0.0 0.0 0.00 0.00 0.00 97 1011.4
20260906090126 72 163 0.0 0.0 0.00 0.00 0.00 97 1011.5
20260906085626 72 163 0.0 0.0 0.00 0.00 0.00 97 1011.7
20260906085120 72 163 0.0 0.0 0.00 0.00 0.00 98 1011.7
20260906084615 72 163 0.0 0.0 0.00 0.00 0.00 98 1011.6
20260906084114 72 163 0.0 0.0 0.00 0.00 0.00 97 1011.7
20260906083609 72 163 0.0 0.0 0.00 0.00 0.00 97 1011.6
20260906083109 72 163 0.0 0.0 0.00 0.00 0.00 97 1011.6
20260906082604 72 163 0.0 0.0 0.00 0.00 0.00 97 1011.7
20260906082100 72 163 0.0 0.0 0.00 0.00 0.00 97 1011.8
20260906081556 72 163 0.0 0.0 0.00 0.00 0.00 97 1011.5
20260906081051 72 163 0.0 0.0 0.00 0.00 0.00 97 1011.5
20260906080548 72 163 0.0 0.0 0.00 0.00 0.00 97 1011.6
20260906080044 72 164 0.0 0.0 0.00 0.00 0.00 97 1011.6
20260906075543 72 163 0.0 0.0 0.00 0.00 0.00 98 1011.8
20260906075038 72 164 0.0 0.0 0.00 0.00 0.00 97 1011.7
20260906074533 72 164 0.0 0.0 0.00 0.00 0.00 97 1011.7
20260906074031 72 160 0.0 0.0 0.00 0.00 0.00 97 1011.8
20260906073526 72 163 0.0 0.0 0.00 0.00 0.00 97 1011.7
20260906073023 72 163 0.0 0.0 0.00 0.00 0.00 97 1011.7
20260906072517 72 163 0.0 0.0 0.00 0.00 0.00 97 1011.7
20260906072014 72 164 0.0 0.0 0.00 0.00 0.00 97 1011.7
20260906071509 72 164 0.0 0.0 0.00 0.00 0.00 97 1011.9
20260906071004 73 164 0.0 0.0 0.00 0.00 0.00 97 1012.0
20260906070501 73 164 0.0 0.0 0.00 0.00 0.00 97 1011.8
20260906065956 73 164 0.0 0.0 0.00 0.00 0.00 97 1011.9
20260906065455 73 165 0.0 0.0 0.00 0.00 0.00 97 1011.7
20260906064951 73 161 0.0 0.0 0.00 0.00 0.00 97 1011.7
20260906064447 73 164 0.0 0.0 0.00 0.00 0.00 97 1011.8
20260906063942 73 161 0.0 0.0 0.00 0.00 0.00 97 1012.1
20260906063438 73 172 0.0 0.0 0.00 0.00 0.00 97 1012.1
20260906062938 73 165 0.0 0.0 0.00 0.00 0.00 97 1011.9
20260906062433 73 166 0.0 0.0 0.00 0.00 0.00 97 1011.8
20260906061928 73 158 0.0 0.0 0.00 0.00 0.00 97 1011.9
20260906061424 73 164 0.0 0.0 0.00 0.00 0.00 97 1011.8
20260906060924 73 163 0.0 0.0 0.00 0.00 0.00 97 1011.9
20260906060421 73 167 0.0 0.0 0.00 0.00 0.00 97 1012.0
20260906055917 73 160 0.0 0.0 0.00 0.00 0.00 97 1012.1
20260906055413 73 166 0.0 0.0 0.00 0.00 0.00 97 1012.1
20260906054908 73 162 0.0 0.0 0.00 0.00 0.00 97 1011.9
20260906054403 74 167 0.0 0.0 0.00 0.00 0.00 97 1012.1
20260906053859 74 161 0.0 0.0 0.00 0.00 0.00 97 1012.1
20260906053354 74 170 0.0 0.0 0.00 0.00 0.00 97 1012.2
20260906052850 74 160 0.0 0.0 0.00 0.00 0.00 97 1012.1
20260906052346 74 161 0.0 0.0 0.00 0.00 0.00 97 1011.9
20260906051843 74 155 0.0 0.0 0.00 0.00 0.00 97 1011.8
20260906051342 74 156 0.0 0.0 0.00 0.00 0.00 97 1011.8
20260906050838 74 157 0.0 0.0 0.00 0.00 0.00 97 1011.6
20260906050333 74 166 0.0 0.0 0.00 0.00 0.00 97 1011.9
20260906045832 74 163 0.0 0.0 0.00 0.00 0.00 97 1011.8
20260906045326 74 165 0.0 0.0 0.00 0.00 0.00 97 1011.9
20260906044823 74 161 0.0 0.0 0.00 0.00 0.00 97 1011.9
20260906044323 74 155 0.0 0.0 0.00 0.00 0.00 97 1012.0
20260906043819 74 150 0.0 0.0 0.00 0.00 0.00 97 1012.1
20260906043315 74 159 0.0 0.0 0.00 0.00 0.00 97 1012.1
20260906042814 74 157 0.0 0.0 0.00 0.00 0.00 97 1012.1
20260906042314 74 144 0.0 0.0 0.00 0.00 0.00 97 1012.4
20260906041809 73 161 0.0 0.0 0.00 0.00 0.00 97 1012.6
20260906041304 73 162 0.0 0.0 0.00 0.00 0.00 97 1012.7
20260906040759 73 166 0.0 0.0 0.00 0.00 0.00 97 1012.9
20260906040255 74 160 0.0 0.0 0.00 0.00 0.00 97 1012.8
20260906035750 74 164 0.0 0.0 0.00 0.08 0.08 97 1012.9
20260906035246 73 154 0.0 0.0 0.00 0.08 0.08 96 1012.8
20260906034746 74 162 0.0 0.0 0.00 0.08 0.08 96 1012.8
20260906034240 74 162 0.0 0.0 0.00 0.08 0.08 96 1012.9
20260906033736 74 162 0.0 0.0 0.00 0.08 0.08 96 1012.9
20260906033236 74 162 0.0 0.0 0.00 0.08 0.08 96 1012.8
20260906032732 74 157 0.0 0.0 0.00 0.08 0.08 96 1013.0
20260906032232 74 158 0.0 0.0 0.00 0.08 0.08 96 1013.2
20260906031728 74 159 0.0 0.0 0.00 0.08 0.08 96 1013.1
20260906031223 74 162 0.0 0.0 0.00 0.08 0.08 96 1013.4
20260906030723 74 161 0.0 0.0 0.00 0.08 0.08 96 1013.2
20260906030218 74 158 0.0 0.0 0.00 0.08 0.08 96 1013.2
20260906025717 74 161 0.0 0.0 0.00 0.08 0.08 96 1013.0
20260906025212 73 165 0.0 0.0 0.00 0.08 0.08 96 1013.1
20260906024711 74 164 0.0 0.0 0.00 0.08 0.08 96 1013.2
20260906024210 73 161 0.0 0.0 0.00 0.08 0.08 96 1013.2
20260906023707 73 158 0.0 0.0 0.00 0.08 0.08 96 1013.1
20260906023207 73 158 0.0 0.0 0.00 0.08 0.08 96 1013.2
20260906022702 73 157 0.0 0.0 0.00 0.08 0.08 96 1013.2
20260906022158 73 153 0.0 0.0 0.00 0.08 0.08 95 1012.9
20260906021654 73 166 0.0 0.0 0.00 0.08 0.08 95 1013.0
20260906021152 73 157 0.0 0.0 0.00 0.08 0.08 95 1013.1
20260906020647 0 0.0 0.0 0.00 0.00 0.00 1013.4
20260906020142 0 0.0 0.0 0.00 0.00 0.00 1013.2
20260906015642 74 158 0.0 0.0 0.00 0.08 0.08 95 1013.2
20260906015141 74 158 0.0 0.0 0.00 0.08 0.08 95 1013.2
20260906014641 73 158 0.0 0.0 0.00 0.08 0.08 95 1013.4
20260906014137 73 166 0.0 0.0 0.00 0.08 0.08 95 1013.5
20260906013632 73 168 0.0 0.0 0.00 0.08 0.08 95 1013.6
20260906013128 73 160 0.0 0.0 0.00 0.08 0.08 95 1013.5
20260906012628 74 156 0.0 0.0 0.00 0.08 0.08 95 1013.5
20260906012122 74 157 0.0 0.0 0.00 0.08 0.08 95 1013.4
20260906011618 74 197 1.7 2.6 0.00 0.08 0.08 95 1013.3
20260906011113 74 162 0.0 0.0 0.00 0.08 0.08 95 1013.1
20260906010608 74 158 0.0 0.0 0.00 0.08 0.08 95 1013.1
20260906010104 74 159 0.0 0.0 0.00 0.08 0.08 95 1013.0
20260906005604 74 157 0.0 0.0 0.00 0.08 0.08 95 1012.8
20260906005103 74 158 0.0 0.0 0.00 0.08 0.08 95 1012.6
20260906004602 74 162 0.0 0.0 0.00 0.08 0.08 95 1012.4
20260906004057 75 159 0.0 0.0 0.00 0.08 0.08 95 1012.5
20260906003552 75 162 0.0 0.0 0.00 0.08 0.08 95 1012.6
20260906003048 75 157 0.0 0.0 0.00 0.08 0.08 95 1012.6
20260906002549 75 157 0.0 0.0 0.00 0.08 0.08 95 1012.5
20260906002044 75 157 0.0 0.0 0.00 0.08 0.08 95 1012.4
20260906001539 75 157 0.0 0.0 0.00 0.08 0.08 95 1012.3
20260906001039 75 159 0.0 0.0 0.00 0.08 0.08 94 1012.4
20260906000535 75 165 0.0 0.9 0.00 0.08 0.08 94 1012.1
20260906000030 75 157 0.0 0.0 0.00 0.08 0.08 95 1012.0
20260905235530 75 157 0.0 0.0 0.00 0.08 0.08 95 1012.2
20260905235025 75 156 0.0 0.0 0.00 0.08 0.08 94 1012.2
20260905234521 0 0.0 0.0 0.00 0.00 0.00 1012.4
20260905234021 0 0.0 0.0 0.00 0.00 0.00 1012.5
20260905233516 75 158 0.0 0.0 0.00 0.08 0.08 93 1012.4
20260905233015 75 158 0.0 0.0 0.00 0.08 0.08 93 1012.3
20260905232511 75 157 0.0 0.0 0.00 0.08 0.08 92 1012.9
20260905232006 75 157 0.0 0.0 0.05 0.08 0.08 93 1013.1
20260905231501 76 158 0.0 0.0 0.12 0.08 0.08 92 1012.9
20260905230958 76 157 0.0 0.0 0.07 0.07 0.07 91 1013.3
20260905230456 78 157 0.0 0.0 0.12 0.06 0.06 87 1013.3
20260905225954 79 160 0.9 1.7 0.35 0.06 0.06 87 1013.8
20260905225450 81 176 0.0 0.9 0.31 0.05 0.05 83 1013.8
20260905224945 85 243 2.6 2.6 0.00 0.00 0.00 73 1014.0
20260905224440 85 167 1.7 1.7 0.00 0.00 0.00 75 1013.9
20260905223939 86 166 0.0 0.9 0.00 0.00 0.00 83 1012.2
20260905223437 86 156 0.0 0.0 0.00 0.00 0.00 83 1011.9
20260905222932 87 104 0.0 0.0 0.00 0.00 0.00 81 1011.2
20260905222432 87 144 0.9 0.9 0.00 0.00 0.00 80 1010.8
20260905221927 87 155 0.0 0.0 0.00 0.00 0.00 79 1011.6
20260905221424 88 144 0.0 0.0 0.00 0.00 0.00 78 1011.7
20260905220920 88 161 0.0 0.0 0.00 0.00 0.00 77 1011.5
20260905220416 89 172 0.0 0.9 0.00 0.00 0.00 76 1011.2
20260905215915 89 153 0.0 0.0 0.00 0.00 0.00 76 1011.0
20260905215410 90 154 0.0 0.9 0.00 0.00 0.00 74 1010.8
20260905214907 90 173 0.0 0.9 0.00 0.00 0.00 73 1011.1
20260905214402 91 118 0.9 1.7 0.00 0.00 0.00 72 1010.7
20260905213857 94 63 1.7 1.7 0.00 0.00 0.00 68 1011.0
20260905213353 95 171 0.0 0.0 0.00 0.00 0.00 66 1010.7
20260905212854 94 137 0.9 1.7 0.00 0.00 0.00 67 1010.9
20260905212349 94 133 1.7 2.6 0.00 0.00 0.00 66 1010.8
20260905211847 95 112 0.0 0.0 0.00 0.00 0.00 67 1011.0
20260905211344 94 162 0.0 0.0 0.00 0.00 0.00 68 1011.0
20260905210840 94 110 1.7 2.6 0.00 0.00 0.00 68 1010.9
20260905210340 94 213 0.9 1.7 0.00 0.00 0.00 68 1011.1
20260905205838 92 171 0.9 0.9 0.00 0.00 0.00 71 1010.9
20260905205333 94 111 0.9 0.9 0.00 0.00 0.00 68 1010.8
20260905204832 93 162 0.9 0.9 0.00 0.00 0.00 68 1010.9
20260905204329 94 119 0.9 1.7 0.00 0.00 0.00 68 1010.9
20260905203827 93 165 0.9 0.9 0.00 0.00 0.00 69 1010.9
20260905203323 94 158 1.7 2.6 0.00 0.00 0.00 66 1010.9
20260905202819 94 105 0.9 1.7 0.00 0.00 0.00 67 1010.6
20260905202313 94 171 0.9 0.9 0.00 0.00 0.00 66 1010.7
20260905201809 94 185 0.9 1.7 0.00 0.00 0.00 67 1010.9
20260905201305 96 108 0.9 0.9 0.00 0.00 0.00 65 1011.1
20260905200805 97 44 1.7 2.6 0.00 0.00 0.00 61 1010.9
20260905200301 96 158 1.7 1.7 0.00 0.00 0.00 63 1010.7
20260905195758 96 111 0.9 1.7 0.00 0.00 0.00 62 1011.0
20260905195254 95 171 1.7 2.6 0.00 0.00 0.00 62 1010.9
20260905194749 93 160 0.0 0.9 0.00 0.00 0.00 68 1011.0
20260905194249 95 236 1.7 1.7 0.00 0.00 0.00 64 1011.1
20260905193748 94 100 1.7 1.7 0.00 0.00 0.00 66 1011.1
20260905193243 95 123 0.0 0.9 0.00 0.00 0.00 66 1011.1
20260905192739 94 181 0.9 0.9 0.00 0.00 0.00 65 1011.3
20260905192235 94 164 0.9 1.7 0.00 0.00 0.00 65 1011.2
20260905191734 94 351 4.3 5.2 0.00 0.00 0.00 65 1011.4
20260905191233 95 81 0.9 2.6 0.00 0.00 0.00 66 1011.5
20260905190732 96 164 0.9 0.9 0.00 0.00 0.00 64 1011.8
20260905190231 96 176 2.6 5.2 0.00 0.00 0.00 62 1011.7
20260905185730 98 82 1.7 2.6 0.00 0.00 0.00 61 1011.7
20260905185225 97 131 0.9 0.9 0.00 0.00 0.00 62 1011.8
20260905184719 97 157 0.9 0.9 0.00 0.00 0.00 62 1012.0
20260905184218 96 124 0.0 0.0 0.00 0.00 0.00 63 1012.2
20260905183718 97 164 0.0 0.0 0.00 0.00 0.00 61 1012.2
20260905183213 96 163 0.0 0.9 0.00 0.00 0.00 63 1012.1
20260905182713 96 173 0.9 1.7 0.00 0.00 0.00 61 1012.2
20260905182213 96 97 0.0 0.9 0.00 0.00 0.00 63 1012.2
20260905181708 96 152 2.6 2.6 0.00 0.00 0.00 62 1012.1
20260905181207 96 132 1.7 2.6 0.00 0.00 0.00 63 1012.2
20260905180701 96 115 0.0 0.9 0.00 0.00 0.00 62 1012.5
20260905180157 97 122 0.0 0.0 0.00 0.00 0.00 62 1012.4
20260905175656 97 75 0.9 2.6 0.00 0.00 0.00 62 1012.5
20260905175151 96 163 0.9 0.9 0.00 0.00 0.00 63 1012.6
20260905174647 95 159 0.0 0.9 0.00 0.00 0.00 65 1012.6
20260905174142 96 126 0.9 0.9 0.00 0.00 0.00 64 1012.7
20260905173638 96 145 0.0 0.9 0.00 0.00 0.00 62 1012.8
20260905173134 95 133 1.7 1.7 0.00 0.00 0.00 61 1012.7
20260905172632 97 192 0.9 1.7 0.00 0.00 0.00 57 1013.0
20260905172127 96 142 0.0 0.0 0.00 0.00 0.00 61 1013.2
20260905171624 95 6 2.6 2.6 0.00 0.00 0.00 59 1013.0
20260905171120 95 148 1.7 1.7 0.00 0.00 0.00 58 1013.1
20260905170616 95 13 3.5 3.5 0.00 0.00 0.00 59 1013.1
20260905170111 95 169 0.9 0.9 0.00 0.00 0.00 60 1013.4
20260905165605 95 16 3.5 5.2 0.00 0.00 0.00 59 1013.1
20260905165101 94 277 0.9 0.9 0.00 0.00 0.00 62 1013.3
20260905164556 95 266 1.7 1.7 0.00 0.00 0.00 61 1013.4
20260905164056 95 2 0.9 1.7 0.00 0.00 0.00 62 1013.6
20260905163552 95 157 0.9 1.7 0.00 0.00 0.00 61 1013.6
20260905163048 94 151 0.9 0.9 0.00 0.00 0.00 63 1013.6
20260905162544 95 119 0.9 0.9 0.00 0.00 0.00 62 1013.7
20260905162043 94 143 0.9 1.7 0.00 0.00 0.00 63 1013.8
20260905161543 94 144 0.9 1.7 0.00 0.00 0.00 64 1013.8
20260905161041 92 12 3.5 5.2 0.00 0.00 0.00 65 1013.9
20260905160539 92 12 3.5 5.2 0.00 0.00 0.00 65 1014.1
20260905160034 92 164 0.9 0.9 0.00 0.00 0.00 66 1014.2
20260905155534 92 275 1.7 1.7 0.00 0.00 0.00 67 1014.2
20260905155033 92 24 2.6 3.5 0.00 0.00 0.00 66 1014.4
20260905154528 92 156 0.0 0.0 0.00 0.00 0.00 67 1014.5
20260905154024 90 167 0.9 0.9 0.00 0.00 0.00 69 1014.4
20260905153520 90 162 1.7 2.6 0.00 0.00 0.00 70 1014.4
20260905153019 91 33 1.7 1.7 0.00 0.00 0.00 68 1014.4
20260905152519 91 49 0.0 0.0 0.00 0.00 0.00 69 1014.5
20260905152015 90 165 0.0 0.0 0.00 0.00 0.00 72 1014.5
20260905151510 91 74 0.9 1.7 0.00 0.00 0.00 69 1014.6
20260905151005 90 118 0.0 0.0 0.00 0.00 0.00 70 1014.6
20260905150500 91 121 1.7 2.6 0.00 0.00 0.00 70 1014.5
20260905145956 89 156 0.0 0.9 0.00 0.00 0.00 74 1014.6
20260905145451 89 293 1.7 2.6 0.00 0.00 0.00 72 1014.7
20260905144950 89 251 1.7 2.6 0.00 0.00 0.00 73 1014.8
20260905144446 88 290 2.6 2.6 0.00 0.00 0.00 73 1014.7
20260905143945 88 143 0.9 1.7 0.00 0.00 0.00 74 1014.7
20260905143444 88 259 1.7 2.6 0.00 0.00 0.00 73 1014.9
20260905142939 88 169 1.7 2.6 0.00 0.00 0.00 73 1014.8
20260905142437 88 164 0.9 1.7 0.00 0.00 0.00 76 1014.9
20260905141928 87 86 0.9 0.9 0.00 0.00 0.00 78 1014.8
20260905141428 86 295 1.7 1.7 0.00 0.00 0.00 78 1014.8
20260905140924 86 123 1.7 3.5 0.00 0.00 0.00 78 1015.0
20260905140420 86 151 0.9 0.9 0.00 0.00 0.00 78 1014.7
20260905135918 86 122 1.7 1.7 0.00 0.00 0.00 79 1014.8
20260905135414 86 158 0.0 0.0 0.00 0.00 0.00 80 1014.9
20260905134909 85 172 0.9 0.9 0.00 0.00 0.00 79 1014.8
20260905134408 85 247 1.7 1.7 0.00 0.00 0.00 81 1015.0
20260905133903 85 303 1.7 2.6 0.00 0.00 0.00 80 1015.1
20260905133358 85 308 5.2 6.1 0.00 0.00 0.00 79 1015.0
20260905132857 85 31 0.9 1.7 0.00 0.00 0.00 81 1014.9
20260905132353 85 155 0.0 0.0 0.00 0.00 0.00 82 1014.8
20260905131852 85 359 1.7 1.7 0.00 0.00 0.00 80 1015.0
20260905131348 84 155 0.0 0.0 0.00 0.00 0.00 83 1014.9
20260905130843 83 139 0.9 1.7 0.00 0.00 0.00 84 1015.0
20260905130341 83 328 0.9 1.7 0.00 0.00 0.00 85 1015.0
20260905125837 82 115 1.7 2.6 0.00 0.00 0.00 86 1015.0
20260905125332 82 30 0.9 0.9 0.00 0.00 0.00 87 1015.0
20260905124828 81 113 1.7 1.7 0.00 0.00 0.00 87 1015.1
20260905124325 81 251 1.7 1.7 0.00 0.00 0.00 88 1015.3
20260905123824 0 0.0 0.0 0.00 0.00 0.00 1015.1
20260905123322 0 0.0 0.0 0.00 0.00 0.00 1015.0
20260905122821 80 56 3.5 3.5 0.00 0.00 0.00 90 1014.9
20260905122320 80 56 3.5 3.5 0.00 0.00 0.00 90 1014.9
20260905121816 80 26 0.9 1.7 0.00 0.00 0.00 91 1014.9
20260905121313 0 0.0 0.0 0.00 0.00 0.00 1014.8
20260905120810 0 0.0 0.0 0.00 0.00 0.00 1014.9
20260905120306 78 158 1.7 1.7 0.00 0.00 0.00 95 1014.9
20260905115801 78 158 1.7 1.7 0.00 0.00 0.00 95 1014.9
20260905115300 0 0.0 0.0 0.00 0.00 0.00 1014.9
20260905114800 0 0.0 0.0 0.00 0.00 0.00 1014.9